Regional Weather Roundup
Issued by NWS Wakefield, VA

Home | Current Version | Previous Version | Text Only | Print | Product List | Glossary On
Versions: 1 2 3 4 5 6 7 8 9 10 11 12 13 14 15 16 17 18 19 20 21 22 23 24 25 26 27 28 29 30 31 32 33 34 35 36 37 38 39 40 41 42 43 44 45 46 47 48 49
998
ASUS41 KAKQ 101015
RWRAKQ

REGIONAL WEATHER ROUNDUP
NATIONAL WEATHER SERVICE WAKEFIELD VA
500 AM EST WED FEB 10 2016

Note: "fair" indicates few or no clouds below 12,000 feet with no
significant weather and/or obstructions to visibility. * = Denotes
station may not report precipitation (e.g., rain,snow,etc.),
thunder or fog.

VAZ042-051-052>054-056-101100-
NORTHERN VIRGINIA

CITY           SKY/WX    TMP DP  RH WIND       PRES   REMARKS
WASH NATIONAL  CLOUDY    30  21  69 W9        29.73S
DULLES         CLOUDY    30  16  56 NW13      29.72R WCI  20
FORT BELVOIR   MOCLDY    29  22  73 VRB5      29.73R
QUANTICO       CLOUDY    32  21  64 W3        29.76R
FREDERICKSBRG* CLOUDY    30  27  89 SW3       29.74S
STAFFORD*      CLOUDY    30  20  68 CALM      29.78R
WARRENTON      CLOUDY    29  23  78 CALM      29.73R
CULPEPER*      CLOUDY    26  21  83 CALM      29.74R
MANASSAS*      CLOUDY    30  21  69 CALM      29.74R
LEESBURG*      CLOUDY    32  23  69 NW12G24   29.72R WCI  23
WINCHESTER     CLOUDY    30  16  55 W15G24    29.71R WCI  19
FRONT ROYAL*   CLOUDY    28  14  54 SW9       29.71R
LURAY*         FAIR      28  12  50 SW9G20    29.72R
$$

VAZ048-049-060>072-079>083-101100-
CENTRAL AND SOUTH CENTRAL VIRGINIA

CITY           SKY/WX    TMP DP  RH WIND       PRES   REMARKS
RICHMOND       FLURRIES  27  24  89 W8        29.76S
CHESTERFIELD*  CLOUDY    28  10  47 SW3       29.77R
PETERSBURG*    CLOUDY    29  12  49 W5        29.78R
HANOVER        FAIR      27  22  81 SW5       29.77R
TAPPAHANNOCK*  LGT SNOW  31  29  95 W3        29.76R
QUINTON*       CLOUDY    28  26  94 W5        29.76R FOG
CHARLOTTSVILLE CLOUDY    29  11  47 VRB3      29.73R
GORDONSVILLE*  PTSUNNY   29  13  51 CALM      29.73R
ORANGE*        CLOUDY    30  18  59 SW5       29.75R
LOUISA*        CLOUDY    28  19  69 CALM      29.72S
BUMPASS*       CLOUDY    27  21  78 SW3       29.74R
FARMVILLE*     FAIR      27  13  57 SW3       29.76S
CREWE*         FAIR      25  14  63 W5        29.77R
FORT PICKETT*  FAIR      24  13  62 W7        29.77R
CHASE CITY*    FAIR      24  12  60 CALM      29.79S
CLARKSVILLE*   FAIR      27  14  59 W5        29.81R
SOUTH HILL*    FAIR      25  13  59 W6        29.84S
LAWRENCEVILLE* FAIR      25  13  60 CALM      29.79R
EMPORIA*       FAIR      27  14  59 SW5       29.81S
$$

VAZ088>098-101100-
SOUTHEAST VIRGINIA

CITY           SKY/WX    TMP DP  RH WIND       PRES   REMARKS
NORFOLK        FAIR      30  13  49 W6        29.76R
VIRGINIA BEACH FAIR      31  14  49 W12       29.76R WCI  22
NORFOLK NAVAL  MOCLDY    31  15  52 W12G23    29.77S WCI  22
WEST POINT*    CLOUDY    30  27  91 W9        29.78R
SALUDA*        CLOUDY    29  28  94 W5        29.75R
NEWPORT NEWS   CLOUDY    30  17  58 W10       29.76R WCI  21
LANGLEY AFB    CLOUDY    30  17  58 W15       29.75R WCI  19
FORT EUSTIS    DRIZZLE   30  14  52 W14       29.75R WCI  19
WILLIAMSBURG*  CLOUDY    30  27  86 W8        29.78R
HR EXEC AP*    FAIR      28  12  50 W9        29.79R
FRANKLIN*      FAIR      28  14  55 W10       29.80R WCI  18
US460-WAKEFLD  CLOUDY    29  14  53 W9        29.78R
$$

VAZ020-022-025-037-045-101100-
WEST CENTRAL AND SOUTHWEST VIRGINIA

CITY           SKY/WX    TMP DP  RH WIND       PRES   REMARKS
STAUNTON*      FAIR      27  15  61 SW3       29.74R
WAYNESBORO*    FAIR      23  10  57 W5        29.72R
HOT SPRINGS VA CLOUDY    13  13  98 W21G31    29.56R WCI  -5
LYNCHBURG      FAIR      24  12  60 W3        29.77R
DANVILLE       FAIR      22  14  71 W7        29.83R
SOUTH BOSTON*  FAIR      23  13  66 SW3       29.82R
MARTINSVILLE   FAIR      18  11  74 CALM      29.85R
ROANOKE        MOCLDY    24  11  57 NW18G28   29.81R WCI  10
BLACKSBURG     CLOUDY    20  13  72 NW14G23   29.79R WCI   7
DUBLIN*        FLURRIES  22  14  74 NW10      29.78R WCI  11
MARION*        FLURRIES  19  13  77 W15       29.78R WCI   5
HILLSVILLE*    FLURRIES  17  12  82 W17       29.71R WCI   1
RICHLANDS*     FLURRIES  16  10  77 W12G17    29.78R WCI   2
WISE*          FLURRIES  16   7  67 W6        29.82R
ABINGDON*      CLOUDY    21  13  70 W13G18    29.85R WCI   8
$$

MDZ021>025-VAZ099-100-101100-
SOUTHERN MARYLAND AND THE DELMARVA PENINSULA

CITY           SKY/WX    TMP DP  RH WIND       PRES   REMARKS
PATUXENT RIVER LGT SNOW  29  24  82 W12       29.74R WCI  19
BAY BRIDGE APT FLURRIES  30  27  86 W7G17     29.71S
LEONARDTOWN    CLOUDY    28  27  93 W6        29.75R
DOVER          CLOUDY    31  27  83 W9        29.66R
GEORGETOWN     CLOUDY    31  24  75 NW7G17    29.69R
EASTON         LGT SNOW  30  30  97 NW7       29.74
CAMBRIDGE      CLOUDY    30  27  86 W8        29.71S
SALISBURY      LGT SNOW  30  25  81 W12       29.70R WCI  20
OCEAN CITY     CLOUDY    32  24  72 NW12      29.69R WCI  23
WALLOPS ISLAND MIX PCPN  32  25  75 NW14      29.72R WCI  22
ACCOMACK*      FLURRIES  32  27  80 W9        29.73R
$$

NCZ012>017-030>032-101100-
NORTH CENTRAL AND EASTERN NORTH CAROLINA

CITY           SKY/WX    TMP DP  RH WIND       PRES   REMARKS
ROANOKE RAPIDS FAIR      28  16  59 W6        29.82R
RALEIGH        CLEAR     25  13  60 W6        29.85R
ELIZABETH CITY CLEAR     29  16  58 W10       29.80R WCI  20
AHOSKIE*       CLEAR     26  15  63 CALM      29.82R
EDENTON*       CLEAR     32  17  55 W9G17     29.82R
CURRITUCK*     CLEAR     31  17  56 W8        29.78S
KILL DEVIL HLS CLEAR     33  19  58 W12G23    29.77R WCI  24
MANTEO         CLEAR     32  20  61 W15       29.79R WCI  22
CAPE HATTERAS  CLOUDY    36  20  52 W17G29    29.80R
TARBORO*       FAIR      29  17  60 W7        29.85R
GOLDSBORO      CLEAR     27  18  69 SW9       29.86R
WASHINGTON     CLEAR     29  16  58 W9        29.85R
GREENVILLE     CLEAR     30  18  59 W6        29.87R
NEW BERN       CLEAR     30  15  53 W7        29.88R
WILMINGTON     CLOUDY    35  16  45 W12       29.91R
$$

VAZ048-101100-
ELSEWHERE

CITY           SKY/WX    TMP DP  RH WIND       PRES   REMARKS
HARRISBURG PA  CLOUDY    30  23  75 W10       29.65R WCI  21
BALTIMORE      CLOUDY    28  23  81 W9        29.70R
ANNAPOLIS      CLOUDY    30  24  78 W8        29.71R
ANDREWS AFB    FAIR      29  22  74 W8        29.70S
PHILADELPHIA   LGT SNOW  32  26  78 W12       29.65R WCI  23
HENDERSON NC   CLEAR     24  13  62 W3        29.81R
GREENSBORO     CLEAR     22  11  62 W5        29.83R
ROCKY MOUNT    CLEAR     28  15  58 SW9       29.85R
$$

VAZ100-101100-
MARINE

STATION/POSITION TIME  TEMP    WIND        PRES    WAVE   SWELL
                       AIR SEA DIR/SP/G            HT/PER HT/PER
                 (UTC) (F)     (DEG/KT/KT) (MB)    (FT/S) (FT/S)
BRANDYWINE LGT   0900   33     310/ 19/ 23 1004.1R
CAPE MAY NJ      0900   34 42  300/ 13/ 22 1003.7R
LEWES DE         0900   33 41  290/ 15/ 19 1004.3R
15NM E FENWICK I 0950   34 43              1004.5R   5/13
OCEAN-CITY-INLET 0900   33 41  310/  7/ 10 1004.1R
WACHAPREAGUE VA  0900   33 42  270/  1/  3 1006.1R
THOMAS POINT MD  0900   29 38  280/ 19/ 21 1006.2
GOOSES REEF MD   1000   30 40  300/ 16/ 19 1007.5R   2/ 3
COVE POINT MD    0900   29     330/  9/ 15 1006.8R
SOLOMONS ISLAND  0900   30 40  300/ 11/ 17   N/A
BISHOPS HEAD MD  0900   31 40  300/ 17/ 20 1005.3R
PINEY POINT MD   0900          340/ 17/ 19   N/A
POTOMAC MD       1000   31 40  310/ 16/ 19 1006.2R   2/ 3
CAMBRIDGE MD     0900   30 40  280/ 11/ 15 1005.3R
LEWISETTA VA     0900   32 41  310/ 13/ 16 1006.5R
RAPPAHANNOCK LGT 0900          260/ 17/ 20 1006.5R
STINGRAY PT      1000   30 42  280/ 12/ 16 1007.1R   1
YORK RVR RNG VA  0900   32     280/ 17/ 21 1006.0R
YORKTOWN VA      0900   31 43  260/ 11/ 13 1006.9R
JAMESTOWN VA     1000   29 43  280/ 16/ 17   N/A
DOMINION TERM VA 0900   31     270/ 17/ 21 1007.2R
KIPTOPEKE VA     0900      42  280/ 18/ 23   N/A
CHES BAY BRIDGE  0900   32 42  230/ 21/ 24 1006.7R
CAPE HENRY VA    0900   30     240/ 10/ 16   N/A
CHESAPEAKE LGHT  0900   33     270/ 21/ 23 1007.5R
WILLOUBY STN VA  0900   31     270/ 20/ 24   N/A
CAPE HENRY BUOY  0928      44                N/A     4/13   2/13
1ST LANDING BUOY 1000      43                N/A     2/ 3
CAPE CHARLES BUO 0926      43                N/A     5/13   3/13
OFFSHORE WE BUOY 0921      45                N/A     5/12   3/12
64NM E OF VA BCH 0950   38 50  270/ 21/ 27 1006.1R   8/13   5/13
DUCK PIER NC     0900   34     290/ 18/ 22 1007.4R
44100 DUCK FRF   0924      47                N/A     6/14   5/14
44056 DUCK FRF   0911      44                N/A     5/13   5/13
OREGON INLET NC  0900   35 46  270/ 14/ 23 1008.2R
HATTERAS NC      0900   39 51  270/ 27/ 32 1007.6F
DIAMOND SHLS NC  0950   43 73  290/ 27/ 35 1008.0R   9/14   5C1F1C2F2C3F3C4F4C5F5C6F6C7F7C8M1C9!



USA.gov is the U.S. government's official web portal to all federal, state and local government web resources and services.